カタログに戻る

GALILEO 18

26E

運用中ナビゲーションMEO
NORAD 41862·PAYLOAD·🇪🇺 EU

打ち上げ Nov 17, 2016 から Guiana Space Centre

Loading…

次のパス (今後24時間)

TLE

最新Source: CelesTrak SupGP

元期: Sep 14, 2026, 23:59 UTC

1 41862C 16069D   26257.99979167  .00000000  00000+0  00000+0 0  2577
2 41862  55.5545  98.5947 0001501 359.5329  86.3324  1.70474339    12

AllMySatでGALILEO 18をリアルタイム追跡

Download on the App Store